Total_Precipitation_Accumulation
0.00 0.00 0.00 0.00 0.00 0.00 0.00 0.00 0.00 0.00 0.00 0.00 0.00 0.00 0.00 0.00 0.00 0.00 0.00 0.00 0.00 0.00 0.00 0.00 0.00 0.00 0.00 0.01 0.00 0.00 0.01 0.01 0.02 0.02 0.02 0.02 0.02 0.03 0.02 0.02 0.03 0.04 0.03 0.03 0.11 0.03 0.02 0.02 0.04 0.04 0.03 0.04 0.03 0.02 0.02 0.02 0.02 0.01 0.01 0.02 0.03 0.05 0.11 0.22 0.42 0.06 0.01 0.00 0.00 0.00 0.00 0.00 0.00 0.00 0.00 0.00 0.00 0.00 0.00 0.00 0.00 0.00 0.00 0.00 0.00
0.00 0.00 0.00 0.00 0.00 0.00 0.00 0.00 0.00 0.00 0.00 0.00 0.00 0.00 0.00 0.00 0.00 0.00 0.00 0.00 0.00 0.00 0.00 0.00 0.00 0.00 0.00 0.00 0.01 0.01 0.01 0.01 0.01 0.02 0.02 0.02 0.02 0.02 0.02 0.02 0.03 0.02 0.03 0.03 0.06 0.13 0.20 0.08 0.07 0.07 0.03 0.04 0.05 0.04 0.02 0.02 0.02 0.02 0.02 0.02 0.03 0.02 0.04 0.12 0.09 0.07 0.02 0.01 0.01 0.00 0.00 0.00 0.00 0.00 0.00 0.00 0.00 0.00 0.00 0.00 0.00 0.00 0.00 0.00 0.00
0.00 0.00 0.00 0.00 0.00 0.00 0.00 0.00 0.00 0.00 0.00 0.00 0.00 0.00 0.00 0.00 0.00 0.00 0.00 0.00 0.00 0.00 0.00 0.00 0.01 0.00 0.00 0.00 0.01 0.01 0.02 0.02 0.01 0.01 0.02 0.03 0.03 0.02 0.02 0.03 0.04 0.06 0.09 0.05 0.08 0.21 0.14 0.09 0.08 0.11 0.10 0.12 0.07 0.06 0.04 0.02 0.02 0.02 0.01 0.02 0.03 0.01 0.01 0.03 0.05 0.06 0.04 0.01 0.00 0.01 0.00 0.01 0.00 0.00 0.00 0.00 0.00 0.00 0.00 0.03 0.00 0.00 0.00 0.00 0.00
0.00 0.00 0.00 0.00 0.00 0.00 0.00 0.00 0.00 0.00 0.00 0.00 0.00 0.00 0.00 0.00 0.00 0.00 0.00 0.00 0.00 0.00 0.00 0.01 0.00 0.00 0.00 0.00 0.01 0.02 0.03 0.02 0.02 0.02 0.05 0.08 0.05 0.07 0.03 0.08 0.16 0.15 0.15 0.16 0.11 0.18 0.17 0.15 0.11 0.15 0.09 0.12 0.07 0.09 0.08 0.04 0.02 0.02 0.02 0.02 0.02 0.01 0.02 0.03 0.04 0.04 0.04 0.03 0.01 0.01 0.00 0.01 0.00 0.00 0.00 0.00 0.00 0.00 0.01 0.00 0.00 0.00 0.00 0.00 0.00
0.00 0.00 0.00 0.00 0.00 0.00 0.00 0.00 0.00 0.00 0.00 0.00 0.00 0.00 0.00 0.00 0.00 0.00 0.00 0.00 0.00 0.00 0.00 0.00 0.00 0.00 0.00 0.00 0.01 0.03 0.01 0.02 0.03 0.03 0.08 0.08 0.15 0.16 0.10 0.12 0.16 0.15 0.11 0.14 0.09 0.20 0.21 0.24 0.10 0.18 0.22 0.16 0.09 0.09 0.10 0.08 0.05 0.06 0.04 0.02 0.03 0.01 0.02 0.02 0.03 0.03 0.05 0.04 0.01 0.01 0.01 0.01 0.00 0.00 0.00 0.00 0.00 0.00 0.00 0.00 0.00 0.00 0.00 0.00 0.00
0.00 0.00 0.00 0.00 0.00 0.00 0.00 0.00 0.00 0.00 0.00 0.00 0.00 0.00 0.00 0.00 0.00 0.00 0.00 0.00 0.00 0.04 0.02 0.01 0.01 0.00 0.00 0.01 0.04 0.04 0.07 0.07 0.05 0.10 0.10 0.16 0.13 0.13 0.18 0.15 0.06 0.06 0.07 0.08 0.12 0.14 0.14 0.12 0.11 0.13 0.20 0.18 0.06 0.07 0.07 0.08 0.06 0.06 0.04 0.03 0.03 0.02 0.02 0.02 0.02 0.04 0.05 0.03 0.02 0.02 0.01 0.02 0.01 0.01 0.00 0.00 0.00 0.01 0.01 0.00 0.00 0.00 0.01 0.01 0.00
0.00 0.00 0.00 0.00 0.00 0.00 0.00 0.00 0.00 0.00 0.00 0.00 0.00 0.00 0.00 0.00 0.00 0.00 0.00 0.01 0.00 0.00 0.00 0.04 0.03 0.03 0.02 0.02 0.06 0.10 0.12 0.06 0.15 0.15 0.11 0.11 0.28 0.10 0.08 0.04 0.05 0.07 0.07 0.06 0.05 0.06 0.21 0.14 0.14 0.10 0.16 0.11 0.08 0.07 0.09 0.11 0.05 0.10 0.03 0.03 0.03 0.03 0.02 0.02 0.02 0.03 0.04 0.03 0.03 0.02 0.02 0.01 0.01 0.01 0.01 0.00 0.02 0.01 0.01 0.01 0.01 0.00 0.01 0.01 0.00
0.00 0.00 0.00 0.00 0.00 0.00 0.00 0.00 0.00 0.00 0.00 0.00 0.00 0.00 0.00 0.00 0.00 0.00 0.00 0.00 0.00 0.00 0.01 0.01 0.01 0.02 0.03 0.06 0.06 0.07 0.10 0.20 0.20 0.33 0.17 0.18 0.21 0.12 0.11 0.08 0.07 0.06 0.06 0.10 0.04 0.04 0.03 0.03 0.03 0.03 0.04 0.05 0.05 0.05 0.05 0.09 0.09 0.11 0.05 0.04 0.02 0.03 0.04 0.02 0.03 0.03 0.03 0.03 0.02 0.02 0.02 0.01 0.02 0.01 0.02 0.03 0.03 0.02 0.02 0.01 0.01 0.00 0.01 0.00 0.00
0.00 0.00 0.00 0.00 0.00 0.00 0.00 0.00 0.00 0.00 0.00 0.00 0.00 0.00 0.00 0.00 0.00 0.00 0.00 0.00 0.01 0.00 0.02 0.03 0.04 0.03 0.03 0.08 0.10 0.09 0.20 0.29 0.35 0.42 0.48 0.35 0.29 0.26 0.16 0.10 0.07 0.06 0.04 0.03 0.02 0.05 0.03 0.03 0.02 0.01 0.01 0.01 0.01 0.07 0.11 0.18 0.04 0.05 0.05 0.04 0.03 0.04 0.07 0.05 0.03 0.03 0.03 0.03 0.02 0.02 0.03 0.03 0.01 0.02 0.03 0.04 0.01 0.00 0.00 0.01 0.00 0.00 0.00 0.00 0.00
0.00 0.00 0.00 0.00 0.00 0.00 0.00 0.00 0.00 0.00 0.00 0.00 0.00 0.00 0.00 0.00 0.00 0.00 0.00 0.02 0.01 0.02 0.02 0.00 0.01 0.03 0.06 0.06 0.10 0.18 0.39 0.34 0.30 0.36 0.39 0.48 0.40 0.34 0.30 0.26 0.13 0.08 0.07 0.04 0.03 0.03 0.03 0.03 0.03 0.02 0.00 0.00 0.00 0.00 0.00 0.02 0.06 0.10 0.04 0.03 0.04 0.06 0.06 0.07 0.06 0.04 0.03 0.03 0.02 0.03 0.04 0.02 0.01 0.01 0.00 0.00 0.00 0.01 0.01 0.01 0.01 0.00 0.01 0.01 0.00
0.00 0.00 0.00 0.00 0.00 0.00 0.00 0.00 0.00 0.00 0.00 0.00 0.00 0.00 0.00 0.00 0.00 0.01 0.03 0.04 0.07 0.04 0.02 0.01 0.00 0.00 0.01 0.03 0.10 0.27 0.43 0.30 0.13 0.09 0.09 0.10 0.19 0.24 0.22 0.16 0.15 0.14 0.15 0.13 0.08 0.05 0.03 0.03 0.03 0.02 0.02 0.03 0.01 0.00 0.00 0.00 0.00 0.00 0.01 0.02 0.05 0.03 0.04 0.06 0.05 0.05 0.04 0.03 0.01 0.03 0.02 0.02 0.01 0.00 0.00 0.00 0.00 0.00 0.00 0.00 0.01 0.01 0.01 0.01 0.00
0.00 0.00 0.00 0.00 0.00 0.00 0.00 0.00 0.00 0.00 0.00 0.00 0.00 0.00 0.00 0.00 0.01 0.02 0.03 0.06 0.07 0.04 0.01 0.00 0.00 0.00 0.01 0.06 0.07 0.18 0.15 0.06 0.05 0.04 0.05 0.09 0.10 0.08 0.08 0.14 0.15 0.19 0.17 0.15 0.12 0.10 0.06 0.05 0.04 0.05 0.06 0.05 0.03 0.04 0.02 0.00 0.00 0.00 0.00 0.00 0.00 0.00 0.01 0.03 0.04 0.05 0.06 0.04 0.04 0.03 0.03 0.01 0.00 0.00 0.00 0.00 0.00 0.01 0.00 0.01 0.01 0.01 0.01 0.01 0.00
0.00 0.00 0.00 0.00 0.00 0.00 0.00 0.00 0.00 0.00 0.00 0.00 0.00 0.00 0.00 0.00 0.00 0.00 0.00 0.02 0.03 0.01 0.00 0.00 0.00 0.00 0.01 0.03 0.07 0.05 0.08 0.03 0.02 0.02 0.02 0.03 0.03 0.02 0.03 0.08 0.13 0.14 0.12 0.10 0.10 0.10 0.08 0.08 0.08 0.07 0.07 0.05 0.09 0.04 0.05 0.06 0.01 0.00 0.00 0.00 0.01 0.01 0.00 0.00 0.00 0.03 0.02 0.03 0.02 0.02 0.02 0.01 0.01 0.00 0.00 0.00 0.00 0.00 0.01 0.01 0.01 0.01 0.01 0.00 0.01
0.00 0.00 0.00 0.00 0.00 0.00 0.00 0.00 0.00 0.00 0.00 0.00 0.00 0.00 0.00 0.00 0.00 0.00 0.00 0.00 0.00 0.00 0.00 0.00 0.00 0.00 0.02 0.03 0.04 0.04 0.06 0.02 0.01 0.01 0.01 0.02 0.02 0.02 0.03 0.07 0.13 0.20 0.21 0.14 0.18 0.24 0.23 0.37 0.29 0.18 0.17 0.12 0.18 0.12 0.10 0.10 0.10 0.06 0.18 0.02 0.06 0.02 0.04 0.01 0.00 0.00 0.01 0.03 0.03 0.03 0.01 0.01 0.01 0.00 0.00 0.00 0.00 0.00 0.01 0.00 0.00 0.00 0.00 0.00 0.00
0.00 0.00 0.00 0.00 0.00 0.00 0.00 0.00 0.00 0.00 0.00 0.00 0.00 0.00 0.00 0.00 0.00 0.00 0.00 0.00 0.00 0.00 0.00 0.00 0.00 0.01 0.02 0.04 0.05 0.03 0.02 0.01 0.00 0.00 0.01 0.01 0.01 0.02 0.04 0.07 0.12 0.18 0.22 0.25 0.45 0.62 0.52 0.32 0.32 0.29 0.19 0.25 0.24 0.37 0.48 0.40 0.29 0.17 0.16 0.07 0.01 0.01 0.01 0.01 0.05 0.03 0.03 0.01 0.01 0.01 0.00 0.01 0.01 0.00 0.00 0.01 0.02 0.03 0.00 0.01 0.00 0.00 0.01 0.01 0.16
0.00 0.00 0.00 0.00 0.00 0.00 0.00 0.00 0.00 0.00 0.00 0.00 0.00 0.00 0.00 0.00 0.00 0.00 0.00 0.00 0.00 0.00 0.00 0.00 0.00 0.00 0.02 0.05 0.02 0.01 0.01 0.00 0.01 0.01 0.01 0.01 0.02 0.03 0.07 0.11 0.21 0.29 0.54 0.58 0.53 0.38 0.48 0.49 0.27 0.17 0.11 0.09 0.13 0.18 0.46 0.47 0.41 0.45 0.27 0.19 0.13 0.02 0.01 0.00 0.00 0.00 0.01 0.01 0.01 0.00 0.00 0.01 0.01 0.02 0.01 0.01 0.03 0.01 0.01 0.01 0.01 0.01 0.01 0.03 0.02
0.00 0.00 0.00 0.00 0.00 0.00 0.00 0.00 0.00 0.00 0.00 0.00 0.00 0.00 0.00 0.00 0.00 0.00 0.00 0.00 0.00 0.00 0.00 0.00 0.00 0.00 0.01 0.03 0.02 0.01 0.01 0.00 0.00 0.01 0.01 0.02 0.05 0.09 0.16 0.57 0.74 0.54 0.40 0.63 0.40 0.31 0.34 0.49 0.77 0.54 0.32 0.30 0.25 0.54 0.32 0.44 0.67 0.32 0.33 0.23 0.13 0.09 0.02 0.01 0.00 0.01 0.01 0.02 0.01 0.01 0.00 0.01 0.02 0.03 0.03 0.02 0.01 0.02 0.02 0.02 0.06 0.09 0.04 0.02 0.05
0.00 0.00 0.00 0.00 0.00 0.00 0.00 0.00 0.00 0.00 0.00 0.00 0.00 0.00 0.00 0.00 0.00 0.00 0.00 0.00 0.00 0.00 0.00 0.00 0.00 0.00 0.01 0.02 0.03 0.03 0.02 0.01 0.01 0.01 0.01 0.03 0.13 0.40 0.77 1.04 0.84 0.62 0.57 0.53 0.44 0.41 0.37 0.37 0.39 0.61 0.46 0.35 0.58 0.75 0.59 0.56 0.34 0.43 0.50 0.36 0.43 0.13 0.07 0.12 0.09 0.01 0.01 0.02 0.02 0.01 0.01 0.01 0.01 0.01 0.02 0.02 0.02 0.01 0.12 0.04 0.09 0.07 0.09 0.04 0.01
0.00 0.00 0.00 0.00 0.00 0.00 0.00 0.00 0.00 0.00 0.00 0.00 0.00 0.00 0.00 0.00 0.00 0.00 0.00 0.00 0.00 0.00 0.00 0.00 0.00 0.00 0.00 0.01 0.03 0.05 0.03 0.02 0.01 0.02 0.02 0.06 0.31 0.84 1.12 0.98 0.91 0.93 0.95 1.10 0.99 0.84 0.65 0.59 0.45 0.34 0.46 0.58 0.44 0.48 0.48 0.63 0.79 0.76 0.70 0.34 0.62 0.31 0.13 0.29 0.11 0.25 0.13 0.10 0.07 0.09 0.07 0.04 0.06 0.05 0.03 0.06 0.01 0.04 0.01 0.02 0.17 0.03 0.02 0.03 0.01
0.00 0.00 0.00 0.00 0.00 0.00 0.00 0.00 0.00 0.00 0.00 0.00 0.00 0.00 0.00 0.00 0.00 0.00 0.00 0.00 0.00 0.00 0.00 0.00 0.00 0.00 0.00 0.00 0.03 0.04 0.02 0.02 0.03 0.03 0.05 0.08 0.29 0.55 0.62 0.54 0.89 0.99 0.87 0.93 1.47 2.19 0.99 1.28 1.16 0.70 0.74 0.88 0.97 0.94 0.76 0.74 0.71 0.97 0.96 0.80 0.66 0.46 0.41 0.20 0.39 0.11 0.16 0.17 0.07 0.07 0.07 0.11 0.04 0.05 0.09 0.12 0.08 0.01 0.06 0.01 0.04 0.04 0.04 0.02 0.03
0.00 0.00 0.00 0.00 0.00 0.00 0.00 0.00 0.00 0.00 0.00 0.00 0.00 0.00 0.00 0.00 0.00 0.00 0.00 0.00 0.00 0.00 0.00 0.00 0.00 0.00 0.00 0.00 0.01 0.02 0.01 0.01 0.04 0.04 0.06 0.08 0.25 0.38 0.37 0.48 0.72 0.89 0.80 0.78 0.91 1.02 0.96 0.95 0.83 0.60 0.68 0.90 1.16 1.08 0.75 0.79 0.75 0.73 0.71 0.83 0.92 0.93 0.92 0.72 0.43 0.36 0.18 0.17 0.18 0.15 0.13 0.09 0.13 0.07 0.18 0.12 0.05 0.02 0.04 0.07 0.11 0.01 0.02 0.01 0.00
0.00 0.00 0.00 0.00 0.00 0.00 0.00 0.00 0.00 0.00 0.00 0.00 0.00 0.00 0.00 0.00 0.00 0.00 0.00 0.00 0.00 0.00 0.00 0.00 0.00 0.00 0.00 0.00 0.00 0.01 0.01 0.01 0.03 0.05 0.06 0.08 0.15 0.31 0.38 0.37 0.36 0.48 0.60 0.62 0.70 0.70 0.67 0.61 0.47 0.33 0.39 0.40 0.48 0.55 0.84 0.85 0.77 0.57 0.55 0.58 0.60 0.67 0.77 0.67 0.48 0.35 0.28 0.31 0.22 0.28 0.23 0.20 0.13 0.12 0.11 0.12 0.08 0.05 0.05 0.09 0.10 0.01 0.01 0.01 0.00
0.00 0.00 0.00 0.00 0.00 0.00 0.00 0.00 0.00 0.00 0.00 0.00 0.00 0.00 0.00 0.00 0.00 0.00 0.00 0.00 0.00 0.00 0.00 0.00 0.00 0.00 0.00 0.00 0.00 0.00 0.00 0.00 0.00 0.02 0.04 0.07 0.09 0.17 0.27 0.34 0.29 0.28 0.38 0.45 0.61 0.61 0.64 0.65 0.51 0.32 0.27 0.50 0.43 0.35 0.31 0.45 0.74 0.87 0.64 0.48 0.44 0.51 0.42 0.52 0.91 0.82 0.46 0.43 0.28 0.50 0.27 0.25 0.21 0.18 0.11 0.08 0.16 0.19 0.08 0.04 0.04 0.03 0.02 0.03 0.02
0.00 0.00 0.00 0.00 0.00 0.00 0.00 0.00 0.00 0.00 0.00 0.00 0.00 0.00 0.00 0.00 0.00 0.00 0.00 0.00 0.00 0.00 0.00 0.00 0.00 0.00 0.00 0.00 0.00 0.00 0.00 0.00 0.00 0.00 0.01 0.05 0.07 0.07 0.15 0.23 0.24 0.25 0.22 0.23 0.28 0.37 0.53 0.62 0.64 0.55 0.36 0.49 0.62 0.70 0.61 0.45 0.60 0.54 0.77 0.97 0.69 0.42 0.43 0.56 0.70 0.76 0.85 0.86 0.41 0.30 0.29 0.29 0.29 0.26 0.20 0.14 0.15 0.06 0.18 0.15 0.12 0.05 0.18 0.10 0.05
0.00 0.00 0.00 0.00 0.00 0.00 0.00 0.00 0.00 0.00 0.00 0.00 0.00 0.00 0.00 0.00 0.00 0.00 0.00 0.00 0.00 0.00 0.00 0.00 0.00 0.00 0.00 0.00 0.00 0.00 0.00 0.00 0.00 0.00 0.00 0.01 0.04 0.06 0.08 0.11 0.16 0.17 0.19 0.19 0.20 0.21 0.29 0.42 0.51 0.52 0.48 0.41 0.50 0.57 0.48 0.38 0.49 0.61 0.66 0.55 0.53 0.72 0.63 0.61 0.67 1.24 1.10 0.78 0.71 0.56 0.36 0.33 0.26 0.30 0.18 0.30 0.22 0.22 0.23 0.40 0.23 0.22 0.19 0.20 0.17
0.00 0.00 0.00 0.00 0.00 0.00 0.00 0.00 0.00 0.00 0.00 0.00 0.00 0.00 0.00 0.00 0.00 0.00 0.00 0.00 0.00 0.00 0.00 0.00 0.00 0.00 0.00 0.00 0.00 0.00 0.00 0.00 0.00 0.00 0.00 0.00 0.01 0.03 0.07 0.08 0.09 0.12 0.13 0.16 0.18 0.19 0.20 0.22 0.30 0.37 0.42 0.43 0.47 0.52 0.56 0.50 0.36 0.34 0.47 0.31 0.28 0.40 0.48 0.54 0.70 1.06 1.25 0.85 0.76 0.89 0.79 0.39 0.36 0.36 0.36 0.38 0.31 0.34 0.23 0.28 0.25 0.37 0.17 0.18 0.18
0.00 0.00 0.00 0.00 0.00 0.00 0.00 0.00 0.00 0.01 0.01 0.00 0.00 0.00 0.00 0.00 0.00 0.00 0.00 0.00 0.00 0.00 0.00 0.00 0.00 0.00 0.00 0.00 0.00 0.00 0.00 0.00 0.00 0.00 0.00 0.00 0.00 0.00 0.02 0.04 0.05 0.08 0.11 0.09 0.10 0.10 0.12 0.16 0.19 0.23 0.26 0.31 0.37 0.36 0.46 0.53 0.48 0.39 0.33 0.38 0.36 0.24 0.39 0.41 0.51 0.94 1.37 1.51 0.95 0.84 0.86 0.75 0.45 0.38 0.45 0.41 0.45 0.37 0.21 0.20 0.15 0.18 0.23 0.22 0.17
0.00 0.00 0.00 0.00 0.00 0.00 0.00 0.00 0.00 0.00 0.00 0.00 0.00 0.00 0.00 0.00 0.00 0.00 0.00 0.00 0.00 0.00 0.00 0.00 0.00 0.00 0.00 0.00 0.00 0.00 0.00 0.00 0.00 0.00 0.00 0.00 0.00 0.00 0.00 0.00 0.01 0.03 0.07 0.08 0.08 0.07 0.05 0.06 0.07 0.10 0.15 0.19 0.26 0.30 0.28 0.31 0.42 0.50 0.48 0.43 0.45 0.48 0.38 0.37 0.46 0.51 0.93 1.46 1.78 1.04 0.97 0.72 0.55 0.45 0.34 0.32 0.29 0.27 0.24 0.23 0.18 0.25 0.30 0.28 0.22
0.00 0.00 0.00 0.00 0.01 0.00 0.00 0.00 0.00 0.00 0.00 0.00 0.00 0.00 0.00 0.00 0.00 0.00 0.00 0.00 0.00 0.00 0.00 0.00 0.00 0.00 0.00 0.00 0.00 0.00 0.00 0.00 0.00 0.00 0.00 0.01 0.00 0.00 0.00 0.00 0.00 0.00 0.00 0.02 0.03 0.04 0.02 0.03 0.03 0.03 0.05 0.08 0.10 0.16 0.26 0.34 0.33 0.31 0.34 0.44 0.41 0.46 0.41 0.37 0.42 0.48 0.62 0.87 1.02 1.53 1.48 0.99 0.79 0.70 0.59 0.49 0.37 0.38 0.33 0.38 0.29 0.23 0.43 0.37 0.26
0.00 0.00 0.01 0.00 0.00 0.00 0.00 0.00 0.00 0.00 0.00 0.01 0.00 0.00 0.00 0.00 0.00 0.00 0.00 0.00 0.00 0.00 0.00 0.00 0.00 0.00 0.00 0.00 0.00 0.00 0.00 0.00 0.01 0.01 0.01 0.01 0.01 0.01 0.01 0.01 0.01 0.00 0.01 0.00 0.00 0.00 0.00 0.00 0.01 0.01 0.02 0.03 0.05 0.07 0.10 0.15 0.22 0.30 0.34 0.33 0.33 0.32 0.30 0.30 0.35 0.49 0.55 0.65 0.77 0.80 0.71 0.74 0.82 0.90 0.84 0.71 0.57 0.43 0.42 0.44 0.42 0.32 0.28 0.29 0.32
0.00 0.00 0.00 0.00 0.00 0.00 0.00 0.00 0.00 0.00 0.00 0.00 0.00 0.00 0.00 0.00 0.00 0.00 0.00 0.00 0.00 0.00 0.00 0.01 0.01 0.01 0.00 0.00 0.00 0.01 0.01 0.01 0.01 0.01 0.01 0.01 0.01 0.01 0.01 0.01 0.01 0.00 0.00 0.00 0.00 0.00 0.00 0.00 0.00 0.00 0.00 0.00 0.01 0.03 0.05 0.08 0.10 0.13 0.17 0.20 0.23 0.32 0.34 0.33 0.27 0.26 0.33 0.47 0.58 0.56 0.55 0.48 0.50 0.42 0.55 0.59 0.52 0.47 0.37 0.33 0.28 0.30 0.30 0.25 0.26
0.00 0.00 0.00 0.00 0.00 0.00 0.00 0.00 0.00 0.00 0.00 0.00 0.00 0.00 0.01 0.00 0.00 0.00 0.00 0.00 0.00 0.00 0.00 0.00 0.00 0.00 0.01 0.01 0.00 0.00 0.00 0.01 0.01 0.01 0.01 0.00 0.00 0.00 0.00 0.00 0.00 0.00 0.00 0.00 0.00 0.00 0.00 0.00 0.00 0.00 0.00 0.00 0.00 0.00 0.00 0.02 0.05 0.09 0.10 0.13 0.14 0.15 0.19 0.25 0.29 0.29 0.28 0.28 0.35 0.45 0.48 0.45 0.39 0.35 0.34 0.50 0.47 0.39 0.29 0.29 0.29 0.28 0.24 0.26 0.27
0.00 0.01 0.00 0.00 0.00 0.00 0.00 0.00 0.00 0.00 0.01 0.01 0.02 0.00 0.01 0.00 0.00 0.00 0.00 0.00 0.00 0.00 0.00 0.00 0.00 0.00 0.00 0.00 0.01 0.01 0.01 0.01 0.01 0.01 0.01 0.00 0.00 0.00 0.00 0.00 0.00 0.00 0.00 0.00 0.00 0.00 0.00 0.00 0.00 0.00 0.00 0.00 0.00 0.00 0.00 0.00 0.03 0.06 0.07 0.07 0.12 0.12 0.11 0.13 0.16 0.21 0.22 0.20 0.22 0.28 0.35 0.39 0.37 0.34 0.37 0.34 0.32 0.35 0.24 0.22 0.24 0.25 0.26 0.24 0.22
0.00 0.00 0.00 0.00 0.00 0.00 0.00 0.00 0.00 0.00 0.00 0.00 0.08 0.03 0.05 0.04 0.08 0.02 0.00 0.00 0.00 0.00 0.00 0.00 0.00 0.00 0.00 0.00 0.00 0.00 0.00 0.00 0.00 0.00 0.00 0.00 0.00 0.00 0.00 0.00 0.00 0.00 0.00 0.00 0.00 0.00 0.00 0.00 0.00 0.00 0.00 0.00 0.00 0.00 0.00 0.00 0.01 0.02 0.05 0.05 0.07 0.10 0.10 0.08 0.08 0.07 0.11 0.15 0.18 0.19 0.22 0.29 0.35 0.37 0.35 0.33 0.32 0.29 0.26 0.24 0.23 0.21 0.20 0.19 0.19
0.00 0.00 0.00 0.00 0.00 0.00 0.00 0.00 0.00 0.01 0.12 0.15 0.17 0.07 0.05 0.07 0.01 0.01 0.00 0.00 0.00 0.00 0.00 0.00 0.00 0.00 0.00 0.00 0.00 0.00 0.00 0.00 0.00 0.00 0.00 0.00 0.00 0.00 0.00 0.00 0.00 0.00 0.00 0.00 0.00 0.00 0.00 0.00 0.00 0.00 0.00 0.00 0.00 0.00 0.00 0.00 0.00 0.01 0.02 0.02 0.03 0.03 0.07 0.07 0.10 0.08 0.11 0.09 0.09 0.12 0.15 0.15 0.18 0.22 0.27 0.31 0.32 0.31 0.30 0.27 0.23 0.21 0.20 0.20 0.19
0.01 0.01 0.01 0.00 0.00 0.01 0.02 0.00 0.09 0.36 0.13 0.20 0.05 0.03 0.01 0.00 0.00 0.02 0.00 0.00 0.00 0.00 0.00 0.00 0.00 0.00 0.00 0.00 0.00 0.00 0.00 0.00 0.00 0.00 0.00 0.00 0.00 0.00 0.00 0.00 0.00 0.00 0.00 0.00 0.00 0.00 0.00 0.00 0.00 0.00 0.00 0.00 0.00 0.00 0.00 0.00 0.00 0.00 0.00 0.00 0.00 0.00 0.00 0.00 0.02 0.05 0.09 0.10 0.15 0.12 0.12 0.13 0.14 0.14 0.15 0.16 0.18 0.21 0.24 0.26 0.26 0.24 0.22 0.21 0.20
0.07 0.10 0.13 0.04 0.10 0.05 0.12 0.41 0.16 0.09 0.09 0.03 0.02 0.06 0.07 0.17 0.11 0.07 0.01 0.00 0.00 0.00 0.00 0.00 0.00 0.00 0.00 0.00 0.00 0.00 0.00 0.00 0.00 0.00 0.00 0.00 0.00 0.00 0.00 0.00 0.00 0.00 0.00 0.00 0.00 0.00 0.00 0.00 0.00 0.00 0.00 0.00 0.00 0.00 0.00 0.00 0.00 0.00 0.00 0.00 0.00 0.00 0.00 0.00 0.00 0.00 0.00 0.02 0.05 0.23 0.16 0.12 0.10 0.13 0.13 0.13 0.13 0.12 0.13 0.15 0.18 0.19 0.19 0.17 0.14
0.48 0.26 0.37 0.27 0.18 0.24 0.14 0.13 0.05 0.10 0.27 0.10 0.14 0.19 0.07 0.04 0.02 0.01 0.01 0.00 0.00 0.00 0.00 0.00 0.00 0.00 0.00 0.00 0.00 0.00 0.00 0.00 0.00 0.00 0.00 0.00 0.00 0.00 0.00 0.00 0.01 0.00 0.00 0.00 0.00 0.00 0.00 0.00 0.00 0.00 0.00 0.00 0.00 0.00 0.00 0.00 0.00 0.00 0.00 0.00 0.00 0.00 0.00 0.00 0.00 0.00 0.00 0.00 0.00 0.01 0.01 0.03 0.15 0.07 0.08 0.16 0.17 0.12 0.10 0.08 0.07 0.08 0.10 0.11 0.11
0.42 0.25 0.23 0.18 0.18 0.17 0.16 0.20 0.15 0.18 0.13 0.07 0.05 0.05 0.07 0.02 0.02 0.01 0.00 0.00 0.00 0.00 0.01 0.00 0.00 0.00 0.00 0.00 0.00 0.00 0.00 0.00 0.00 0.00 0.00 0.00 0.00 0.00 0.00 0.00 0.00 0.00 0.00 0.00 0.00 0.00 0.00 0.00 0.00 0.00 0.00 0.00 0.00 0.00 0.00 0.00 0.00 0.00 0.00 0.00 0.00 0.00 0.00 0.00 0.00 0.00 0.00 0.00 0.00 0.00 0.01 0.01 0.01 0.11 0.47 0.12 0.13 0.10 0.14 0.12 0.07 0.04 0.03 0.03 0.04
0.19 0.10 0.14 0.09 0.11 0.12 0.17 0.17 0.14 0.11 0.08 0.11 0.08 0.09 0.05 0.01 0.04 0.01 0.00 0.00 0.00 0.01 0.01 0.00 0.00 0.00 0.00 0.00 0.00 0.00 0.00 0.00 0.00 0.00 0.00 0.00 0.00 0.00 0.00 0.00 0.00 0.01 0.00 0.00 0.00 0.00 0.00 0.00 0.00 0.00 0.00 0.00 0.00 0.00 0.00 0.00 0.00 0.00 0.00 0.00 0.00 0.00 0.00 0.00 0.00 0.00 0.00 0.00 0.00 0.00 0.00 0.00 0.03 0.16 0.23 0.14 0.09 0.21 0.14 0.09 0.09 0.05 0.02 0.01 0.01
0.02 0.02 0.02 0.06 0.42 0.13 0.03 0.05 0.10 0.41 0.45 0.23 0.09 0.05 0.01 0.01 0.01 0.01 0.00 0.00 0.00 0.00 0.01 0.01 0.00 0.00 0.00 0.00 0.01 0.00 0.00 0.01 0.01 0.01 0.01 0.01 0.01 0.00 0.00 0.00 0.00 0.00 0.00 0.00 0.00 0.00 0.00 0.00 0.00 0.00 0.00 0.00 0.00 0.00 0.00 0.00 0.00 0.00 0.00 0.00 0.00 0.00 0.00 0.00 0.00 0.00 0.00 0.00 0.00 0.00 0.00 0.00 0.00 0.00 0.01 0.04 0.08 0.16 0.09 0.04 0.02 0.02 0.02 0.02 0.01
0.01 0.17 0.24 0.20 0.02 0.05 0.07 0.26 0.28 0.24 0.10 0.08 0.03 0.01 0.01 0.01 0.01 0.01 0.01 0.01 0.01 0.00 0.00 0.00 0.00 0.00 0.00 0.00 0.00 0.00 0.00 0.01 0.01 0.01 0.01 0.01 0.01 0.01 0.01 0.00 0.00 0.00 0.00 0.00 0.00 0.00 0.00 0.00 0.00 0.00 0.00 0.00 0.00 0.00 0.00 0.00 0.00 0.00 0.00 0.00 0.00 0.00 0.00 0.00 0.00 0.00 0.00 0.00 0.00 0.00 0.00 0.00 0.00 0.00 0.00 0.00 0.00 0.00 0.01 0.01 0.01 0.01 0.00 0.00 0.01
0.02 0.10 0.06 0.01 0.09 0.30 0.48 0.35 0.11 0.05 0.02 0.01 0.01 0.02 0.01 0.00 0.00 0.01 0.01 0.01 0.01 0.00 0.00 0.00 0.00 0.00 0.00 0.00 0.00 0.00 0.00 0.00 0.02 0.01 0.01 0.01 0.01 0.01 0.01 0.01 0.00 0.00 0.00 0.00 0.00 0.00 0.00 0.00 0.00 0.00 0.00 0.00 0.00 0.00 0.01 0.01 0.00 0.00 0.00 0.00 0.00 0.00 0.00 0.00 0.00 0.00 0.00 0.00 0.00 0.00 0.00 0.00 0.00 0.00 0.00 0.00 0.00 0.00 0.00 0.00 0.00 0.00 0.00 0.18 0.16
0.36 0.14 0.16 0.37 0.47 0.11 0.08 0.05 0.03 0.02 0.01 0.01 0.01 0.01 0.00 0.00 0.00 0.01 0.01 0.00 0.00 0.00 0.00 0.00 0.00 0.00 0.00 0.00 0.00 0.00 0.00 0.00 0.00 0.00 0.01 0.02 0.01 0.02 0.02 0.01 0.01 0.01 0.00 0.00 0.00 0.00 0.00 0.00 0.00 0.00 0.00 0.00 0.00 0.00 0.01 0.02 0.02 0.02 0.02 0.01 0.01 0.01 0.01 0.01 0.01 0.00 0.00 0.00 0.07 0.07 0.10 0.15 0.21 0.08 0.02 0.01 0.01 0.00 0.01 0.01 0.01 0.00 0.04 0.01 0.01
0.02 0.02 0.07 0.02 0.04 0.03 0.01 0.00 0.00 0.00 0.00 0.00 0.00 0.00 0.00 0.00 0.00 0.00 0.00 0.00 0.01 0.00 0.00 0.01 0.00 0.00 0.00 0.00 0.00 0.00 0.00 0.00 0.01 0.01 0.01 0.02 0.03 0.03 0.04 0.03 0.01 0.01 0.01 0.01 0.01 0.00 0.00 0.00 0.00 0.01 0.01 0.01 0.01 0.00 0.01 0.01 0.02 0.02 0.03 0.03 0.03 0.03 0.03 0.03 0.04 0.11 0.08 0.08 0.11 0.06 0.10 0.02 0.04 0.06 0.09 0.04 0.11 0.10 0.03 0.05 0.14 0.01 0.01 0.06 0.07
0.20 0.03 0.01 0.01 0.01 0.00 0.00 0.00 0.00 0.00 0.00 0.00 0.00 0.00 0.00 0.00 0.00 0.00 0.00 0.01 0.00 0.00 0.00 0.00 0.00 0.00 0.00 0.00 0.00 0.00 0.00 0.00 0.00 0.01 0.01 0.02 0.04 0.06 0.05 0.02 0.02 0.03 0.03 0.02 0.01 0.01 0.00 0.01 0.01 0.01 0.02 0.02 0.02 0.02 0.01 0.01 0.01 0.01 0.01 0.01 0.01 0.01 0.01 0.01 0.02 0.03 0.05 0.02 0.03 0.08 0.09 0.06 0.10 0.04 0.10 0.08 0.12 0.11 0.08 0.08 0.05 0.09 0.06 0.06 0.08
0.00 0.00 0.00 0.01 0.00 0.00 0.00 0.00 0.00 0.00 0.00 0.00 0.00 0.00 0.00 0.00 0.00 0.00 0.01 0.00 0.00 0.00 0.00 0.00 0.00 0.00 0.00 0.00 0.00 0.00 0.00 0.00 0.00 0.00 0.00 0.01 0.01 0.01 0.01 0.02 0.02 0.02 0.01 0.01 0.01 0.01 0.01 0.02 0.01 0.02 0.02 0.03 0.02 0.02 0.02 0.02 0.02 0.01 0.01 0.01 0.01 0.01 0.01 0.01 0.00 0.01 0.02 0.09 0.07 0.03 0.05 0.14 0.08 0.06 0.10 0.09 0.07 0.13 0.12 0.04 0.13 0.07 0.05 0.06 0.06
0.00 0.01 0.00 0.01 0.00 0.00 0.00 0.00 0.00 0.00 0.00 0.00 0.00 0.00 0.00 0.00 0.00 0.00 0.00 0.00 0.00 0.00 0.00 0.00 0.00 0.00 0.00 0.00 0.00 0.00 0.00 0.00 0.00 0.00 0.00 0.00 0.00 0.00 0.01 0.01 0.01 0.01 0.01 0.01 0.00 0.00 0.01 0.01 0.02 0.03 0.04 0.05 0.05 0.05 0.05 0.05 0.05 0.04 0.04 0.03 0.03 0.04 0.04 0.05 0.05 0.05 0.04 0.03 0.04 0.04 0.05 0.04 0.03 0.04 0.07 0.07 0.09 0.08 0.09 0.08 0.07 0.05 0.05 0.05 0.03
0.00 0.00 0.00 0.00 0.00 0.00 0.00 0.00 0.00 0.00 0.00 0.00 0.00 0.00 0.00 0.00 0.00 0.00 0.00 0.00 0.00 0.00 0.00 0.00 0.00 0.00 0.00 0.00 0.00 0.00 0.00 0.00 0.00 0.00 0.00 0.00 0.00 0.00 0.00 0.00 0.01 0.01 0.01 0.00 0.00 0.00 0.00 0.00 0.00 0.01 0.01 0.05 0.03 0.05 0.05 0.04 0.04 0.04 0.04 0.04 0.04 0.05 0.06 0.06 0.07 0.07 0.07 0.07 0.07 0.08 0.09 0.11 0.12 0.12 0.12 0.12 0.11 0.10 0.09 0.08 0.06 0.05 0.04 0.03 0.02
0.00 0.00 0.00 0.00 0.00 0.00 0.00 0.00 0.00 0.00 0.00 0.00 0.00 0.00 0.00 0.00 0.00 0.00 0.00 0.00 0.00 0.00 0.00 0.00 0.00 0.00 0.00 0.00 0.00 0.00 0.00 0.00 0.00 0.00 0.00 0.00 0.00 0.00 0.00 0.00 0.00 0.00 0.00 0.01 0.00 0.00 0.00 0.00 0.00 0.00 0.00 0.00 0.01 0.01 0.02 0.03 0.03 0.02 0.02 0.02 0.02 0.02 0.03 0.03 0.04 0.04 0.04 0.05 0.06 0.07 0.07 0.08 0.08 0.09 0.10 0.11 0.12 0.14 0.15 0.15 0.14 0.13 0.11 0.10 0.07
0.00 0.00 0.00 0.00 0.00 0.00 0.00 0.00 0.00 0.00 0.00 0.00 0.00 0.00 0.00 0.00 0.00 0.00 0.00 0.00 0.00 0.00 0.00 0.00 0.00 0.00 0.00 0.00 0.00 0.00 0.00 0.00 0.00 0.00 0.00 0.00 0.00 0.00 0.00 0.00 0.00 0.00 0.00 0.00 0.00 0.00 0.00 0.00 0.00 0.00 0.00 0.00 0.00 0.00 0.01 0.02 0.03 0.04 0.05 0.04 0.04 0.04 0.03 0.03 0.03 0.03 0.04 0.04 0.03 0.03 0.04 0.06 0.07 0.08 0.08 0.08 0.07 0.07 0.07 0.08 0.13 0.24 0.12 0.14 0.15